Regional Weather Roundup
Issued by NWS

Home | Current Version | Previous Version | Graphics & Text | Print | Product List | Glossary On
Versions: 1 2 3 4 5 6 7 8 9 10 11 12 13 14 15 16 17 18 19 20 21 22 23 24 25 26 27 28 29 30 31 32 33 34 35 36 37 38 39 40 41 42 43 44 45 46 47 48 49 50
000
ASUS43 KFSD 290610
RWRSD

WEATHER ROUNDUP FOR SOUTH DAKOTA
NATIONAL WEATHER SERVICE SIOUX FALLS SD
100 AM CDT SUN MAY 29 2016

NOTE: "FAIR" INDICATES FEW OR NO CLOUDS BELOW 12,000 FEET WITH NO
SIGNIFICANT WEATHER AND/OR OBSTRUCTIONS TO VISIBILITY.


SDZ001>005-009-010-012>017-290700-
NORTHWEST AND NORTH CENTRAL SOUTH DAKOTA

CITY           SKY/WX    TMP DP  RH WIND       PRES   REMARKS
BUFFALO          N/A     54  42  64 SW3       29.97R
FAITH            N/A     57  49  74 NW6       30.00R
MOBRIDGE       CLEAR     56  51  84 NW5       29.94R
$$

SDZ012>016-024>037-041>051-057-063-072>074-290700-
SOUTHWEST AND SOUTH CENTRAL SOUTH DAKOTA

CITY           SKY/WX    TMP DP  RH WIND       PRES   REMARKS
RAPID CTY ARPT CLEAR     52  46  80 NW9       30.04R
PIERRE         CLEAR     56  53  90 S3        29.96R
CUSTER         CLEAR     42  39  89 CALM      30.12S
ELLSWORTH AFB  CLEAR     50  47  89 W6        30.03S
PHILIP         CLOUDY    52  50  93 W3        30.00R
PINE RIDGE     CLEAR     44  42  93 SE5       30.07R
WINNER         FAIR      59  55  87 SW3       29.98R
$$

SDZ004>011-016>023-039-040-290700-
NORTHEAST SOUTH DAKOTA

CITY           SKY/WX    TMP DP  RH WIND       PRES   REMARKS
ABERDEEN       CLOUDY    59  56  89 SW6       29.91R
WATERTOWN      CLOUDY    57  54  89 W9        29.91S
BROOKINGS      CLOUDY    57  56  96 W6        29.93R
SISSETON         N/A     58  55  90 NW6       29.88R
$$

SDZ017-020-022-023-036>040-048>070-290700-
SOUTHEAST SOUTH DAKOTA

CITY           SKY/WX    TMP DP  RH WIND       PRES   REMARKS
SIOUX FALLS    CLEAR     58  56  93 W3        29.94S
HURON          CLOUDY    60  58  92 SW6       29.94R
CHAMBERLAIN    CLEAR     60  60  99 SW8       29.97R
MITCHELL       PTCLDY    60  58  92 SW7       29.95S
YANKTON        CLEAR     57  54  88 SW6       29.96S
$$

ABBREVIATIONS USED IN REMARKS
   TC - TEMPERATURE IN CELSIUS
  WCI - WIND CHILL INDEX
   HX - HEAT INDEX
  VSB - VISIBILITY





USA.gov is the U.S. government's official web portal to all federal, state and local government web resources and services.